| time (UTC) | temp F | wind direction | speed MPH | gust MPH | rain 1hr in | rain 24hr in | rain mn in | humidity % | barometer mb |
| 20260505041613 | 63 | 127 | 0.0 | 0.0 | 0.00 | 0.00 | 0.00 | 76 | 1014.4 |
| 20260505041110 | 64 | 316 | 0.0 | 0.0 | 0.00 | 0.00 | 0.00 | 76 | 1014.5 |
| 20260505040607 | 64 | 355 | 0.0 | 1.0 | 0.00 | 0.00 | 0.00 | 76 | 1014.5 |
| 20260505040104 | 64 | 270 | 0.0 | 0.0 | 0.00 | 0.00 | 0.00 | 75 | 1014.8 |
| 20260505035600 | 64 | 185 | 0.0 | 1.0 | 0.00 | 0.00 | 0.00 | 75 | 1014.6 |
| 20260505035057 | 64 | 314 | 0.0 | 0.0 | 0.00 | 0.00 | 0.00 | 74 | 1014.6 |
| 20260505034553 | 64 | 286 | 0.0 | 0.0 | 0.00 | 0.00 | 0.00 | 74 | 1014.5 |
| 20260505034050 | 64 | 302 | 0.0 | 0.0 | 0.00 | 0.00 | 0.00 | 74 | 1014.4 |
| 20260505033547 | 65 | 305 | 0.0 | 0.0 | 0.00 | 0.00 | 0.00 | 73 | 1014.5 |
| 20260505033046 | 65 | 275 | 0.0 | 0.0 | 0.00 | 0.00 | 0.00 | 73 | 1014.8 |
| 20260505032543 | 65 | 275 | 0.0 | 0.0 | 0.00 | 0.00 | 0.00 | 73 | 1014.5 |
| 20260505032039 | 65 | 301 | 0.0 | 0.0 | 0.00 | 0.00 | 0.00 | 72 | 1014.6 |
| 20260505031537 | 65 | 303 | 0.0 | 0.0 | 0.00 | 0.00 | 0.00 | 72 | 1014.6 |
| 20260505031033 | 65 | 291 | 0.0 | 0.0 | 0.00 | 0.00 | 0.00 | 71 | 1014.4 |
| 20260505030530 | 65 | 301 | 0.0 | 0.0 | 0.00 | 0.00 | 0.00 | 71 | 1014.5 |
| 20260505030026 | 65 | 300 | 0.0 | 0.0 | 0.00 | 0.00 | 0.00 | 71 | 1014.3 |
| 20260505025522 | 66 | 297 | 0.0 | 0.0 | 0.00 | 0.00 | 0.00 | 70 | 1014.4 |
| 20260505025021 | 66 | 332 | 0.0 | 0.0 | 0.00 | 0.00 | 0.00 | 70 | 1014.1 |
| 20260505024518 | 66 | 254 | 0.0 | 0.0 | 0.00 | 0.00 | 0.00 | 70 | 1014.3 |
| 20260505024015 | 66 | 308 | 0.0 | 0.0 | 0.00 | 0.00 | 0.00 | 70 | 1014.0 |
| 20260505023512 | 66 | 149 | 1.0 | 1.0 | 0.00 | 0.00 | 0.00 | 69 | 1014.1 |
| 20260505023009 | 66 | 306 | 0.0 | 0.0 | 0.00 | 0.00 | 0.00 | 69 | 1014.0 |
| 20260505022507 | 66 | 268 | 0.0 | 0.0 | 0.00 | 0.00 | 0.00 | 69 | 1014.2 |
| 20260505022004 | 67 | 283 | 0.0 | 0.0 | 0.00 | 0.00 | 0.00 | 68 | 1014.1 |
| 20260505021500 | 67 | 269 | 0.0 | 1.0 | 0.00 | 0.00 | 0.00 | 68 | 1014.3 |
| 20260505020956 | 67 | 291 | 0.0 | 0.0 | 0.00 | 0.00 | 0.00 | 68 | 1014.2 |
| 20260505020451 | 67 | 283 | 0.0 | 1.0 | 0.00 | 0.00 | 0.00 | 68 | 1014.1 |
| 20260505015948 | 67 | 285 | 0.0 | 0.0 | 0.00 | 0.00 | 0.00 | 67 | 1014.0 |
| 20260505015446 | 67 | 284 | 0.0 | 0.0 | 0.00 | 0.00 | 0.00 | 66 | 1013.9 |
| 20260505014943 | 67 | 287 | 0.0 | 0.0 | 0.00 | 0.00 | 0.00 | 65 | 1013.6 |
| 20260505014439 | 67 | 289 | 0.0 | 0.0 | 0.00 | 0.00 | 0.00 | 64 | 1014.1 |
| 20260505013937 | 68 | 286 | 0.0 | 0.0 | 0.00 | 0.00 | 0.00 | 63 | 1013.8 |
| 20260505013434 | 68 | 297 | 0.0 | 0.0 | 0.00 | 0.00 | 0.00 | 62 | 1013.9 |
| 20260505012931 | 68 | 269 | 0.0 | 0.0 | 0.00 | 0.00 | 0.00 | 62 | 1013.8 |
| 20260505012429 | 69 | 239 | 0.0 | 1.0 | 0.00 | 0.00 | 0.00 | 61 | 1013.8 |
| 20260505011925 | 69 | 216 | 1.0 | 2.0 | 0.00 | 0.00 | 0.00 | 60 | 1013.7 |
| 20260505011422 | 70 | 275 | 1.0 | 1.0 | 0.00 | 0.00 | 0.00 | 60 | 1013.4 |
| 20260505010918 | 70 | 241 | 1.0 | 1.0 | 0.00 | 0.00 | 0.00 | 58 | 1013.8 |
| 20260505010414 | 70 | 292 | 0.0 | 0.0 | 0.00 | 0.00 | 0.00 | 58 | 1013.8 |
| 20260505005910 | 71 | 226 | 1.0 | 2.0 | 0.00 | 0.00 | 0.00 | 57 | 1013.6 |
| 20260505005408 | 70 | 292 | 0.0 | 1.0 | 0.00 | 0.00 | 0.00 | 58 | 1013.5 |
| 20260505004905 | 71 | 274 | 1.0 | 1.0 | 0.00 | 0.00 | 0.00 | 57 | 1013.5 |
| 20260505004401 | 71 | 246 | 1.0 | 1.0 | 0.00 | 0.00 | 0.00 | 56 | 1013.6 |
| 20260505003858 | 72 | 244 | 0.0 | 1.0 | 0.00 | 0.00 | 0.00 | 55 | 1013.6 |
| 20260505003355 | 72 | 266 | 1.0 | 1.0 | 0.00 | 0.00 | 0.00 | 54 | 1013.7 |
| 20260505002852 | 73 | 188 | 1.0 | 1.0 | 0.00 | 0.00 | 0.00 | 54 | 1013.7 |
| 20260505002348 | 73 | 209 | 1.0 | 2.0 | 0.00 | 0.00 | 0.00 | 52 | 1013.9 |
| 20260505001847 | 74 | 147 | 4.0 | 7.0 | 0.00 | 0.00 | 0.00 | 50 | 1013.8 |
| 20260505001344 | 74 | 235 | 2.0 | 2.0 | 0.00 | 0.00 | 0.00 | 49 | 1013.8 |
| 20260505000841 | 74 | 259 | 1.0 | 1.0 | 0.00 | 0.00 | 0.00 | 50 | 1014.2 |
| 20260505000338 | 75 | 270 | 2.0 | 2.0 | 0.00 | 0.00 | 0.00 | 48 | 1014.1 |
| 20260504235835 | 76 | 230 | 3.0 | 5.0 | 0.00 | 0.00 | 0.00 | 46 | 1014.0 |
| 20260504235332 | 76 | 215 | 2.0 | 2.0 | 0.00 | 0.00 | 0.00 | 46 | 1014.2 |
| 20260504234828 | 76 | 234 | 1.0 | 3.0 | 0.00 | 0.00 | 0.00 | 47 | 1014.1 |
| 20260504234326 | 76 | 259 | 2.0 | 2.0 | 0.00 | 0.00 | 0.00 | 46 | 1014.0 |
| 20260504233823 | 76 | 203 | 4.0 | 7.0 | 0.00 | 0.00 | 0.00 | 45 | 1014.2 |
| 20260504233318 | 76 | 257 | 4.0 | 5.0 | 0.00 | 0.00 | 0.00 | 45 | 1013.9 |
| 20260504232815 | 77 | 230 | 1.0 | 2.0 | 0.00 | 0.00 | 0.00 | 45 | 1014.2 |
| 20260504232313 | 78 | 201 | 1.0 | 1.0 | 0.00 | 0.00 | 0.00 | 45 | 1014.2 |
| 20260504231809 | 78 | 279 | 0.0 | 1.0 | 0.00 | 0.00 | 0.00 | 44 | 1014.4 |
| 20260504231306 | 78 | 158 | 2.0 | 2.0 | 0.00 | 0.00 | 0.00 | 43 | 1014.3 |
| 20260504230802 | 78 | 256 | 2.0 | 3.0 | 0.00 | 0.00 | 0.00 | 44 | 1014.1 |
| 20260504230300 | 78 | 198 | 4.0 | 5.0 | 0.00 | 0.00 | 0.00 | 42 | 1014.1 |
| 20260504225759 | 79 | 258 | 3.0 | 3.0 | 0.00 | 0.00 | 0.00 | 43 | 1014.3 |
| 20260504225254 | 79 | 255 | 3.0 | 3.0 | 0.00 | 0.00 | 0.00 | 42 | 1014.3 |
| 20260504224752 | 79 | 255 | 3.0 | 3.0 | 0.00 | 0.00 | 0.00 | 42 | 1014.5 |
| 20260504224249 | 79 | 193 | 4.0 | 7.0 | 0.00 | 0.00 | 0.00 | 43 | 1014.5 |
| 20260504223745 | 80 | 190 | 5.0 | 6.0 | 0.00 | 0.00 | 0.00 | 41 | 1014.4 |
| 20260504223241 | 80 | 248 | 3.0 | 3.0 | 0.00 | 0.00 | 0.00 | 43 | 1014.5 |
| 20260504222738 | 80 | 187 | 3.0 | 5.0 | 0.00 | 0.00 | 0.00 | 42 | 1014.4 |
| 20260504222235 | 80 | 271 | 0.0 | 0.0 | 0.00 | 0.00 | 0.00 | 41 | 1014.6 |
| 20260504221732 | 80 | 192 | 2.0 | 2.0 | 0.00 | 0.00 | 0.00 | 42 | 1014.5 |
| 20260504221229 | 80 | 210 | 2.0 | 2.0 | 0.00 | 0.00 | 0.00 | 41 | 1014.5 |
| 20260504220726 | 80 | 249 | 2.0 | 3.0 | 0.00 | 0.00 | 0.00 | 42 | 1014.6 |
| 20260504220223 | 80 | 253 | 4.0 | 5.0 | 0.00 | 0.00 | 0.00 | 42 | 1014.7 |
| 20260504215720 | 80 | 187 | 4.0 | 6.0 | 0.00 | 0.00 | 0.00 | 41 | 1014.7 |
| 20260504215217 | 80 | 228 | 2.0 | 3.0 | 0.00 | 0.00 | 0.00 | 42 | 1014.9 |
| 20260504214713 | 80 | 229 | 2.0 | 2.0 | 0.00 | 0.00 | 0.00 | 42 | 1014.8 |
| 20260504214209 | 81 | 197 | 4.0 | 5.0 | 0.00 | 0.00 | 0.00 | 41 | 1014.9 |
| 20260504213706 | 81 | 231 | 4.0 | 5.0 | 0.00 | 0.00 | 0.00 | 44 | 1014.9 |
| 20260504213202 | 82 | 316 | 3.0 | 3.0 | 0.00 | 0.00 | 0.00 | 42 | 1014.7 |
| 20260504212659 | 81 | 184 | 3.0 | 5.0 | 0.00 | 0.00 | 0.00 | 42 | 1014.9 |
| 20260504212156 | 81 | 182 | 4.0 | 5.0 | 0.00 | 0.00 | 0.00 | 42 | 1015.0 |
| 20260504211653 | 81 | 278 | 3.0 | 3.0 | 0.00 | 0.00 | 0.00 | 42 | 1014.9 |
| 20260504211149 | 81 | 145 | 2.0 | 3.0 | 0.00 | 0.00 | 0.00 | 43 | 1015.3 |
| 20260504210647 | 81 | 155 | 2.0 | 2.0 | 0.00 | 0.00 | 0.00 | 42 | 1015.1 |
| 20260504210143 | 81 | 227 | 1.0 | 1.0 | 0.00 | 0.00 | 0.00 | 42 | 1015.1 |
| 20260504205641 | 81 | 143 | 2.0 | 3.0 | 0.00 | 0.00 | 0.00 | 42 | 1015.4 |
| 20260504205138 | 80 | 250 | 1.0 | 1.0 | 0.00 | 0.00 | 0.00 | 40 | 1015.4 |
| 20260504204637 | 81 | 225 | 4.0 | 5.0 | 0.00 | 0.00 | 0.00 | 43 | 1015.5 |
| 20260504204135 | 81 | 67 | 2.0 | 3.0 | 0.00 | 0.00 | 0.00 | 46 | 1015.5 |
| 20260504203634 | 80 | 266 | 2.0 | 2.0 | 0.00 | 0.00 | 0.00 | 45 | 1015.5 |
| 20260504203131 | 81 | 187 | 2.0 | 3.0 | 0.00 | 0.00 | 0.00 | 42 | 1015.8 |
| 20260504202631 | 81 | 192 | 3.0 | 5.0 | 0.00 | 0.00 | 0.00 | 42 | 1015.6 |
| 20260504202128 | 81 | 234 | 2.0 | 5.0 | 0.00 | 0.00 | 0.00 | 45 | 1015.9 |
| 20260504201625 | 81 | 202 | 4.0 | 5.0 | 0.00 | 0.00 | 0.00 | 44 | 1015.8 |
| 20260504201123 | 81 | 171 | 3.0 | 3.0 | 0.00 | 0.00 | 0.00 | 44 | 1015.7 |
| 20260504200620 | 81 | 248 | 2.0 | 3.0 | 0.00 | 0.00 | 0.00 | 47 | 1015.7 |
| 20260504200116 | 80 | 254 | 2.0 | 2.0 | 0.00 | 0.00 | 0.00 | 46 | 1016.0 |
| 20260504195612 | 82 | 264 | 3.0 | 3.0 | 0.00 | 0.00 | 0.00 | 42 | 1016.1 |
| 20260504195109 | 81 | 154 | 3.0 | 5.0 | 0.00 | 0.00 | 0.00 | 46 | 1016.3 |
| 20260504194605 | 81 | 233 | 3.0 | 5.0 | 0.00 | 0.00 | 0.00 | 46 | 1016.1 |
| 20260504194101 | 80 | 189 | 2.0 | 2.0 | 0.00 | 0.00 | 0.00 | 46 | 1016.5 |
| 20260504193558 | 82 | 220 | 4.0 | 6.0 | 0.00 | 0.00 | 0.00 | 42 | 1016.7 |
| 20260504193056 | 81 | 194 | 1.0 | 2.0 | 0.00 | 0.00 | 0.00 | 45 | 1016.8 |
| 20260504192554 | 82 | 252 | 1.0 | 2.0 | 0.00 | 0.00 | 0.00 | 45 | 1016.6 |
| 20260504192052 | 81 | 293 | 1.0 | 1.0 | 0.00 | 0.00 | 0.00 | 44 | 1017.0 |
| 20260504191550 | 81 | 189 | 3.0 | 3.0 | 0.00 | 0.00 | 0.00 | 45 | 1016.8 |
| 20260504191046 | 80 | 210 | 3.0 | 3.0 | 0.00 | 0.00 | 0.00 | 43 | 1016.8 |
| 20260504190542 | 80 | 245 | 1.0 | 2.0 | 0.00 | 0.00 | 0.00 | 44 | 1016.7 |
| 20260504190038 | 81 | 161 | 3.0 | 3.0 | 0.00 | 0.00 | 0.00 | 46 | 1017.1 |
| 20260504185536 | 80 | 234 | 3.0 | 5.0 | 0.00 | 0.00 | 0.00 | 44 | 1017.0 |
| 20260504185032 | 80 | 234 | 3.0 | 5.0 | 0.00 | 0.00 | 0.00 | 44 | 1016.8 |
| 20260504184527 | 80 | 234 | 3.0 | 5.0 | 0.00 | 0.00 | 0.00 | 44 | 1017.0 |
| 20260504184023 | 80 | 323 | 1.0 | 2.0 | 0.00 | 0.00 | 0.00 | 43 | 1017.1 |
| 20260504183520 | 80 | 207 | 3.0 | 5.0 | 0.00 | 0.00 | 0.00 | 43 | 1017.1 |
| 20260504183019 | 80 | 310 | 2.0 | 3.0 | 0.00 | 0.00 | 0.00 | 47 | 1016.9 |
| 20260504182515 | 80 | 215 | 1.0 | 2.0 | 0.00 | 0.00 | 0.00 | 49 | 1017.6 |
| 20260504182012 | 80 | 165 | 2.0 | 5.0 | 0.00 | 0.00 | 0.00 | 46 | 1017.3 |
| 20260504181509 | 80 | 215 | 2.0 | 2.0 | 0.00 | 0.00 | 0.00 | 44 | 1017.4 |
| 20260504181008 | 79 | 194 | 4.0 | 6.0 | 0.00 | 0.00 | 0.00 | 44 | 1017.5 |
| 20260504180506 | 80 | 324 | 3.0 | 3.0 | 0.00 | 0.00 | 0.00 | 47 | 1017.6 |
| 20260504180005 | 80 | 320 | 1.0 | 2.0 | 0.00 | 0.00 | 0.00 | 47 | 1017.8 |
| 20260504175501 | 80 | 206 | 2.0 | 2.0 | 0.00 | 0.00 | 0.00 | 47 | 1017.8 |
| 20260504174958 | 80 | 214 | 0.0 | 1.0 | 0.00 | 0.00 | 0.00 | 48 | 1017.9 |
| 20260504174456 | 78 | 174 | 3.0 | 5.0 | 0.00 | 0.00 | 0.00 | 45 | 1017.9 |
| 20260504173953 | 79 | 235 | 5.0 | 7.0 | 0.00 | 0.00 | 0.00 | 44 | 1017.8 |
| 20260504173449 | 79 | 345 | 1.0 | 1.0 | 0.00 | 0.00 | 0.00 | 44 | 1017.8 |
| 20260504172947 | 80 | 235 | 2.0 | 3.0 | 0.00 | 0.00 | 0.00 | 48 | 1017.9 |
| 20260504172443 | 78 | 207 | 1.0 | 1.0 | 0.00 | 0.00 | 0.00 | 48 | 1018.0 |
| 20260504171940 | 79 | 174 | 3.0 | 3.0 | 0.00 | 0.00 | 0.00 | 46 | 1018.1 |
| 20260504171437 | 78 | 272 | 2.0 | 2.0 | 0.00 | 0.00 | 0.00 | 47 | 1018.1 |
| 20260504170934 | 79 | 331 | 2.0 | 2.0 | 0.00 | 0.00 | 0.00 | 44 | 1018.3 |
| 20260504170430 | 79 | 240 | 4.0 | 6.0 | 0.00 | 0.00 | 0.00 | 44 | 1018.0 |
| 20260504160349 | 77 | 273 | 1.0 | 1.0 | 0.00 | 0.00 | 0.00 | 51 | 1018.7 |
| 20260504150814 | 74 | 201 | 3.0 | 3.0 | 0.00 | 0.00 | 0.00 | 53 | 1018.7 |
| 20260504150310 | 75 | 243 | 1.0 | 2.0 | 0.00 | 0.00 | 0.00 | 56 | 1018.7 |
| 20260504141240 | 69 | 209 | 1.0 | 2.0 | 0.00 | 0.00 | 0.00 | 71 | 1018.8 |
| 20260504140737 | 68 | 204 | 3.0 | 3.0 | 0.00 | 0.00 | 0.00 | 72 | 1018.7 |
| 20260504140233 | 69 | 229 | 2.0 | 2.0 | 0.00 | 0.00 | 0.00 | 71 | 1018.7 |
| 20260504130701 | 64 | 252 | 0.0 | 0.0 | 0.00 | 0.00 | 0.00 | 81 | 1018.7 |
| 20260504130157 | 64 | 25 | 1.0 | 1.0 | 0.00 | 0.00 | 0.00 | 80 | 1018.7 |
| 20260504120121 | 55 | 313 | 0.0 | 0.0 | 0.00 | 0.00 | 0.00 | 99 | 1018.3 |
| 20260504110549 | 52 | 300 | 0.0 | 0.0 | 0.00 | 0.00 | 0.00 | 99 | 1017.9 |
| 20260504100510 | 52 | 311 | 0.0 | 0.0 | 0.00 | 0.00 | 0.00 | 99 | 1017.8 |
| 20260504081904 | 53 | 288 | 0.0 | 0.0 | 0.00 | 0.00 | 0.00 | 95 | 1018.4 |
| 20260504081400 | 53 | 308 | 0.0 | 0.0 | 0.00 | 0.00 | 0.00 | 95 | 1018.4 |
| 20260504080856 | 53 | 308 | 0.0 | 0.0 | 0.00 | 0.00 | 0.00 | 95 | 1018.0 |
| 20260504080354 | 54 | 308 | 0.0 | 0.0 | 0.00 | 0.00 | 0.00 | 95 | 1018.2 |
| 20260504070321 | 55 | 305 | 0.0 | 0.0 | 0.00 | 0.00 | 0.00 | 91 | 1018.5 |
| 20260504060241 | 56 | 306 | 0.0 | 0.0 | 0.00 | 0.00 | 0.00 | 86 | 1019.3 |
| 20260504050709 | 58 | 292 | 0.0 | 0.0 | 0.00 | 0.00 | 0.00 | 81 | 1019.5 |
| 20260504050206 | 58 | 292 | 0.0 | 0.0 | 0.00 | 0.00 | 0.00 | 80 | 1019.5 |
| 20260504045703 | 57 | 293 | 0.0 | 0.0 | 0.00 | 0.00 | 0.00 | 80 | 1019.6 |
| 20260504045157 | 58 | 293 | 0.0 | 0.0 | 0.00 | 0.00 | 0.00 | 79 | 1019.6 |
| 20260504044655 | 58 | 293 | 0.0 | 0.0 | 0.00 | 0.00 | 0.00 | 78 | 1019.7 |
| 20260504044152 | 59 | 293 | 0.0 | 0.0 | 0.00 | 0.00 | 0.00 | 77 | 1019.6 |
| 20260504043649 | 60 | 292 | 0.0 | 0.0 | 0.00 | 0.00 | 0.00 | 77 | 1019.9 |
| 20260504043146 | 60 | 291 | 0.0 | 0.0 | 0.00 | 0.00 | 0.00 | 76 | 1019.8 |
| 20260504042644 | 60 | 284 | 0.0 | 0.0 | 0.00 | 0.00 | 0.00 | 73 | 1019.9 |
| 20260504042140 | 61 | 279 | 0.0 | 0.0 | 0.00 | 0.00 | 0.00 | 72 | 1019.9 |